HST (20580 NORAD) Tracking and Keplerian Element Data

This shows tracking and keplerian element data for the satellite.

Feedback or suggestion? Click here.




ElementValue
Catalog20580
NameHST
Epoch Orbit52506
Epoch Day261.4764905
Epoch Year2021
RAAN169.5321
Inclination28.4693
Eccentricity0.0002596
Argument of Perigee348.9419
Mean Anonmoly174.0248
Mean Motion15.09738591
Decay Rate6.37E-06
L11 20580U 90037B 21261.47649050 .00000637 00000-0 27506-4 0 9991
L22 20580 28.4693 169.5321 0002596 348.9419 174.0248 15.09738591525068

Live tracking and technical data element details for HST (NORAD 20580). HST can be tracked NOW for your location showing map with azimuth and elevation plus other details from your city location.

Track the satellite on the map from your city or location and see movement details for azimuth, elevation, latitude, longitude, range, height, and movement on the map or in text.







IsCatalogInMostPopularTable: catalog: 20580, numindb: 949
Update: records affected: 1



GetName: 20580 HST

Hit Count: updated at: Sun, 26 Sep 2021 00:44:06 GMT